WA8SIE Weather Reports


Display with metric or nautical units.
time (UTC)temp
F
wind
direction
speed
MPH
gust
MPH
rain 1hr
in
rain 24hr
in
rain mn
in
humidity
%
barometer
mb
20260904092512 74 216 0.0 0.0 0.00 0.00 0.00 100 1010.3
20260904092011 74 216 0.0 0.0 0.00 0.00 0.00 100 1010.3
20260904091511 74 216 0.0 0.0 0.00 0.00 0.00 100 1010.3
20260904091011 74 216 0.0 0.0 0.00 0.00 0.00 100 1010.2
20260904090511 74 216 0.0 0.0 0.00 0.00 0.00 100 1010.2
20260904090011 74 216 0.0 0.0 0.00 0.00 0.00 100 1010.2
20260904085511 74 216 0.0 0.0 0.00 0.00 0.00 100 1010.1
20260904085011 74 216 0.0 0.0 0.00 0.00 0.00 100 1010.1
20260904084510 74 216 0.0 0.0 0.00 0.00 0.00 100 1010.1
20260904084011 74 216 0.0 0.0 0.00 0.00 0.00 100 1010.0
20260904083510 74 216 1.0 2.0 0.00 0.00 0.00 100 1010.0
20260904083010 75 216 0.0 0.0 0.00 0.00 0.00 100 1010.0
20260904082510 75 216 0.0 0.0 0.00 0.00 0.00 100 1010.0
20260904082012 75 216 0.0 0.0 0.00 0.00 0.00 100 1010.0
20260904081510 75 216 0.0 0.0 0.00 0.00 0.00 100 1010.0
20260904081012 75 216 1.0 3.0 0.00 0.00 0.00 100 1010.1
20260904080510 75 216 0.0 0.0 0.00 0.00 0.00 100 1010.1
20260904074010 75 216 0.0 0.0 0.00 0.00 0.00 100 1010.1
20260904073510 75 216 0.0 0.0 0.00 0.00 0.00 100 1010.1
20260904073011 75 216 0.0 0.0 0.00 0.00 0.00 100 1010.1
20260904071510 75 216 0.0 0.0 0.00 0.00 0.00 100 1010.1
20260904071013 75 216 0.0 0.0 0.00 0.00 0.00 100 1010.0
20260904070511 76 216 0.0 0.0 0.00 0.00 0.00 100 1010.0
20260904070011 76 216 0.0 0.0 0.00 0.00 0.00 100 1010.0
20260904065012 75 216 0.0 0.0 0.00 0.00 0.00 100 1010.1
20260904064511 76 216 0.0 0.0 0.00 0.00 0.00 100 1010.1
20260904064013 76 216 0.0 0.0 0.00 0.00 0.00 100 1010.2
20260904063511 76 216 0.0 0.0 0.00 0.00 0.00 100 1010.2
20260904062511 76 216 0.0 0.0 0.00 0.00 0.00 100 1010.3
20260904062011 76 215 0.0 0.0 0.00 0.00 0.00 100 1010.3
20260904061511 76 216 0.0 0.0 0.00 0.00 0.00 100 1010.3
20260904061011 76 216 0.0 0.0 0.00 0.00 0.00 100 1010.5
20260904060511 76 216 0.0 0.0 0.00 0.00 0.00 100 1010.5
20260904060011 76 216 0.0 0.0 0.00 0.00 0.00 100 1010.5
20260904055511 76 216 0.0 0.0 0.00 0.00 0.00 100 1010.5
20260904055013 76 215 0.0 0.0 0.00 0.00 0.00 100 1010.5
20260904054511 76 216 0.0 0.0 0.00 0.00 0.00 100 1010.5
20260904054011 77 216 0.0 0.0 0.00 0.00 0.00 100 1010.6
20260904053511 77 216 0.0 0.0 0.00 0.00 0.00 100 1010.6
20260904052511 77 216 0.0 0.0 0.00 0.00 0.00 99 1010.5
20260904052011 77 216 0.0 0.0 0.00 0.00 0.00 99 1010.5
20260904051513 77 215 0.0 0.0 0.00 0.00 0.00 99 1010.5
20260904051011 77 216 0.0 0.0 0.00 0.00 0.00 99 1010.6
20260904050511 77 216 0.0 0.0 0.00 0.00 0.00 99 1010.6
20260904050011 77 216 0.0 0.0 0.00 0.00 0.00 99 1010.6
20260904045513 77 216 0.0 0.0 0.00 0.00 0.00 99 1010.6
20260904045011 77 216 0.0 0.0 0.00 0.00 0.00 99 1010.6
20260904044511 78 216 0.0 0.0 0.00 0.00 0.00 99 1010.6
20260904043511 78 216 0.0 0.0 0.00 0.00 0.00 98 1010.5
20260904043011 78 216 0.0 0.0 0.00 0.00 0.00 98 1010.5
20260904042511 78 216 0.0 0.0 0.00 0.00 0.00 98 1010.5
20260904042011 78 216 0.0 0.0 0.00 0.00 0.00 98 1010.5
20260904041511 78 216 0.0 0.0 0.00 0.00 0.00 98 1010.5
20260904035511 78 216 0.0 0.0 0.00 0.00 0.00 97 1010.6
20260904035011 78 216 0.0 0.0 0.00 0.00 0.00 97 1010.6
20260904034511 78 216 0.0 0.0 0.00 0.00 0.00 97 1010.6
20260904034011 78 216 0.0 0.0 0.00 0.00 0.00 97 1010.5
20260904033511 79 216 0.0 2.0 0.00 0.00 0.00 97 1010.5
20260904033011 79 216 1.0 0.0 0.00 0.00 0.00 97 1010.5
20260904032512 79 216 0.0 0.0 0.00 0.00 0.00 96 1010.6
20260904031511 79 216 0.0 0.0 0.00 0.00 0.00 96 1010.6
20260904031011 79 216 0.0 0.0 0.00 0.00 0.00 95 1010.7
20260904030511 79 216 0.0 0.0 0.00 0.00 0.00 95 1010.7
20260904030011 79 216 0.0 0.0 0.00 0.00 0.00 95 1010.7
20260904025513 79 216 0.0 0.0 0.00 0.00 0.00 95 1010.7
20260904025011 80 215 0.0 0.0 0.00 0.00 0.00 95 1010.7
20260904024510 80 216 0.0 1.0 0.00 0.00 0.00 95 1010.7
20260904023011 80 215 0.0 0.0 0.00 0.00 0.00 94 1010.7
20260904022510 80 216 0.0 0.0 0.00 0.00 0.00 93 1010.7
20260904022011 80 216 0.0 0.0 0.00 0.00 0.00 93 1010.7
20260904021511 80 216 0.0 0.0 0.00 0.00 0.00 93 1010.7
20260904021010 80 216 0.0 0.0 0.00 0.00 0.00 92 1010.7
20260904020511 80 216 0.0 0.0 0.00 0.00 0.00 92 1010.7
20260904020012 81 216 0.0 0.0 0.00 0.00 0.00 92 1010.7
20260904015511 81 216 0.0 2.0 0.00 0.00 0.00 92 1010.7
20260904015011 81 216 1.0 0.0 0.00 0.00 0.00 91 1010.7
20260904014511 81 217 0.0 0.0 0.00 0.00 0.00 90 1010.7
20260904014011 81 217 0.0 0.0 0.00 0.00 0.00 90 1010.4
20260904013510 81 216 0.0 0.0 0.00 0.00 0.00 89 1010.4
20260904012511 82 217 0.0 0.0 0.00 0.00 0.00 88 1010.4
20260904011512 82 216 0.0 0.0 0.00 0.00 0.00 88 1010.4
20260904011011 82 216 0.0 0.0 0.00 0.00 0.00 87 1010.3
20260904010511 82 216 0.0 0.0 0.00 0.00 0.00 87 1010.3
20260904005511 83 216 0.0 0.0 0.00 0.00 0.00 87 1010.4
20260904005010 83 216 0.0 0.0 0.00 0.00 0.00 86 1010.4
20260904004512 84 216 0.0 0.0 0.00 0.00 0.00 85 1010.4
20260904004010 84 216 0.0 2.0 0.00 0.00 0.00 85 1010.2
20260904003510 84 216 0.0 0.0 0.00 0.00 0.00 84 1010.2
20260904003010 84 216 0.0 0.0 0.00 0.00 0.00 83 1010.2
20260904002510 84 216 0.0 0.0 0.00 0.00 0.00 82 1009.8
20260904001512 84 217 0.0 0.0 0.00 0.00 0.00 80 1009.8
20260904001011 85 217 0.0 0.0 0.00 0.00 0.00 80 1009.9
20260904000510 85 216 0.0 0.0 0.00 0.00 0.00 79 1009.9
20260903235510 86 216 0.0 0.0 0.00 0.00 0.00 77 1010.0
20260903235010 86 216 0.0 0.0 0.00 0.00 0.00 77 1010.0
20260903234010 87 216 0.0 0.0 0.00 0.00 0.00 73 1009.8
20260903233510 87 216 0.0 0.0 0.00 0.00 0.00 72 1009.8
20260903233010 87 217 0.0 0.0 0.00 0.00 0.00 71 1009.8
20260903232510 88 216 0.0 0.0 0.00 0.00 0.00 69 1009.7
20260903231510 89 216 0.0 0.0 0.00 0.00 0.00 68 1009.7
20260903231010 89 216 0.0 0.0 0.00 0.00 0.00 66 1009.6
20260903230510 90 216 0.0 0.0 0.00 0.00 0.00 66 1009.6
20260903230010 90 216 0.0 0.0 0.00 0.00 0.00 65 1009.6
20260903225512 90 216 0.0 0.0 0.00 0.00 0.00 64 1009.4
20260903225012 91 217 0.0 0.0 0.00 0.00 0.00 63 1009.4
20260903224511 91 216 0.0 0.0 0.00 0.00 0.00 64 1009.4
20260903223010 92 216 0.0 0.0 0.00 0.00 0.00 61 1009.2
20260903222012 92 216 0.0 0.0 0.00 0.00 0.00 57 1009.0
20260903220513 92 195 2.0 0.0 0.00 0.00 0.00 55 1009.0
20260903220011 92 198 0.0 0.0 0.00 0.00 0.00 54 1009.0
20260903215511 92 194 0.0 0.0 0.00 0.00 0.00 54 1008.9
20260903214013 93 203 1.0 0.0 0.00 0.00 0.00 51 1009.1
20260903213511 93 191 0.0 0.0 0.00 0.00 0.00 52 1009.1
20260903213011 93 191 3.0 0.0 0.00 0.00 0.00 51 1009.1
20260903212011 93 195 0.0 5.0 0.00 0.00 0.00 50 1009.2
20260903211513 93 196 0.0 0.0 0.00 0.00 0.00 51 1009.2
20260903211011 94 196 0.0 0.0 0.00 0.00 0.00 51 1009.6
20260903210511 94 196 0.0 0.0 0.00 0.00 0.00 50 1009.6
20260903210011 94 196 0.0 0.0 0.00 0.00 0.00 50 1009.6
20260903205011 94 188 0.0 0.0 0.00 0.00 0.00 50 1009.8
20260903204511 94 188 0.0 0.0 0.00 0.00 0.00 49 1009.8
20260903204013 94 174 0.0 0.0 0.00 0.00 0.00 49 1009.8
20260903203513 94 165 0.0 0.0 0.00 0.00 0.00 53 1009.8
20260903203011 94 207 0.0 5.0 0.00 0.00 0.00 52 1009.8
20260903202511 94 206 0.0 0.0 0.00 0.00 0.00 51 1010.0
20260903202011 94 186 0.0 0.0 0.00 0.00 0.00 51 1010.0
20260903201512 94 197 4.0 0.0 0.00 0.00 0.00 50 1010.0
20260903201011 94 267 0.0 0.0 0.00 0.00 0.00 51 1010.2
20260903200513 94 267 0.0 0.0 0.00 0.00 0.00 52 1010.2
20260903200011 94 267 0.0 0.0 0.00 0.00 0.00 52 1010.2
20260903195512 94 267 0.0 0.0 0.00 0.00 0.00 55 1010.3
20260903195011 94 268 0.0 0.0 0.00 0.00 0.00 53 1010.3
20260903194512 94 178 0.0 0.0 0.00 0.00 0.00 53 1010.3
20260903194011 94 179 0.0 2.0 0.00 0.00 0.00 51 1010.5
20260903193511 94 179 0.0 0.0 0.00 0.00 0.00 53 1010.5
20260903192511 94 179 0.0 0.0 0.00 0.00 0.00 48 1010.6
20260903192011 96 193 4.0 0.0 0.00 0.00 0.00 47 1010.6
20260903191011 96 355 0.0 0.0 0.00 0.00 0.00 50 1010.9
20260903190511 96 355 0.0 0.0 0.00 0.00 0.00 47 1010.9
20260903190011 96 290 0.0 0.0 0.00 0.00 0.00 49 1010.9
20260903185511 97 122 0.0 0.0 0.00 0.00 0.00 49 1011.0
20260903184511 96 200 0.0 0.0 0.00 0.00 0.00 48 1011.0
20260903183510 95 200 3.0 0.0 0.00 0.00 0.00 50 1011.1
20260903183010 95 296 0.0 0.0 0.00 0.00 0.00 51 1011.1
20260903182511 94 311 0.0 4.0 0.00 0.00 0.00 53 1011.3
20260903182010 94 309 0.0 0.0 0.00 0.00 0.00 52 1011.3
20260903181511 94 309 0.0 0.0 0.00 0.00 0.00 53 1011.3
20260903180011 95 292 0.0 6.0 0.00 0.00 0.00 50 1011.4
20260903175511 96 16 0.0 0.0 0.00 0.00 0.00 51 1011.5
20260903175010 96 222 1.0 0.0 0.00 0.00 0.00 51 1011.5
20260903174511 96 47 0.0 0.0 0.00 0.00 0.00 50 1011.5
20260903174011 95 293 0.0 0.0 0.00 0.00 0.00 51 1011.7
20260903173011 95 297 0.0 0.0 0.00 0.00 0.00 51 1011.7
20260903172511 95 326 0.0 0.0 0.00 0.00 0.00 51 1011.7
20260903172011 94 262 0.0 0.0 0.00 0.00 0.00 53 1011.7
20260903171511 94 226 0.0 0.0 0.00 0.00 0.00 53 1011.7
20260903171010 94 250 0.0 5.0 0.00 0.00 0.00 56 1011.8
20260903170011 93 1 0.0 0.0 0.00 0.00 0.00 53 1011.8
20260903165012 94 198 0.0 0.0 0.00 0.00 0.00 56 1012.2
20260903164512 93 201 0.0 4.0 0.00 0.00 0.00 57 1012.2
20260903163510 93 172 0.0 0.0 0.00 0.00 0.00 55 1012.3
20260903163010 93 188 3.0 0.0 0.00 0.00 0.00 56 1012.3
20260903162510 93 188 0.0 0.0 0.00 0.00 0.00 58 1012.3
20260903161510 92 188 0.0 0.0 0.00 0.00 0.00 60 1012.3
20260903161010 92 189 0.0 0.0 0.00 0.00 0.00 59 1012.3
20260903160512 91 188 0.0 0.0 0.00 0.00 0.00 61 1012.3
20260903160010 91 189 0.0 0.0 0.00 0.00 0.00 62 1012.3
20260903155010 91 188 0.0 0.0 0.00 0.00 0.00 63 1012.4
20260903154510 91 133 0.0 0.0 0.00 0.00 0.00 62 1012.4
20260903154012 90 207 2.0 0.0 0.00 0.00 0.00 63 1012.5
20260903153512 90 207 0.0 0.0 0.00 0.00 0.00 65 1012.5
20260903153011 90 207 0.0 2.0 0.00 0.00 0.00 66 1012.5
20260903152512 89 207 0.0 0.0 0.00 0.00 0.00 64 1012.7
20260903152010 89 300 0.0 0.0 0.00 0.00 0.00 66 1012.7
20260903151510 88 300 0.0 0.0 0.00 0.00 0.00 67 1012.7
20260903151012 88 191 0.0 0.0 0.00 0.00 0.00 68 1012.6
20260903150510 87 191 0.0 4.0 0.00 0.00 0.00 68 1012.6
20260903150010 87 191 0.0 0.0 0.00 0.00 0.00 67 1012.6
20260903145510 87 307 0.0 0.0 0.00 0.00 0.00 69 1012.7
20260903145010 87 309 0.0 0.0 0.00 0.00 0.00 68 1012.7
20260903144010 86 319 0.0 3.0 0.00 0.00 0.00 70 1012.8
20260903143510 86 319 0.0 0.0 0.00 0.00 0.00 70 1012.8
20260903143011 86 200 0.0 0.0 0.00 0.00 0.00 72 1012.8
20260903142011 85 200 0.0 0.0 0.00 0.00 0.00 73 1012.7
20260903141511 84 200 0.0 3.0 0.00 0.00 0.00 74 1012.7
20260903141013 84 200 0.0 0.0 0.00 0.00 0.00 75 1012.7
20260903140511 84 200 1.0 0.0 0.00 0.00 0.00 75 1012.7
20260903140011 84 123 0.0 0.0 0.00 0.00 0.00 78 1012.7
20260903135511 83 123 0.0 0.0 0.00 0.00 0.00 78 1012.8
20260903135011 83 124 0.0 0.0 0.00 0.00 0.00 79 1012.8
20260903134511 82 124 0.0 0.0 0.00 0.00 0.00 83 1012.8
20260903133511 81 124 0.0 0.0 0.00 0.00 0.00 82 1012.9
20260903133011 81 124 0.0 0.0 0.00 0.00 0.00 84 1012.9
20260903132513 80 123 0.0 0.0 0.00 0.00 0.00 86 1013.2
20260903131511 78 123 0.0 0.0 0.00 0.00 0.00 89 1013.2
20260903131013 78 124 2.0 0.0 0.00 0.00 0.00 90 1013.3
20260903130513 77 124 0.0 0.0 0.00 0.00 0.00 91 1013.3
20260903130011 77 123 0.0 2.0 0.00 0.00 0.00 93 1013.3
20260903125511 76 124 0.0 0.0 0.00 0.00 0.00 94 1013.3
20260903125012 76 124 0.0 0.0 0.00 0.00 0.00 95 1013.3
20260903124511 76 123 0.0 0.0 0.00 0.00 0.00 98 1013.3
20260903123511 75 198 0.0 0.0 0.00 0.00 0.00 100 1013.4
20260903123011 75 199 0.0 0.0 0.00 0.00 0.00 100 1013.4
20260903122511 74 199 0.0 0.0 0.00 0.00 0.00 100 1013.4
20260903122011 74 199 0.0 0.0 0.00 0.00 0.00 100 1013.4
20260903121511 74 199 0.0 0.0 0.00 0.00 0.00 100 1013.4
20260903121011 73 198 0.0 0.0 0.00 0.00 0.00 100 1013.3
20260903120511 73 198 0.0 0.0 0.00 0.00 0.00 100 1013.3
20260903120011 73 198 0.0 1.0 0.00 0.00 0.00 100 1013.3
20260903115512 72 198 0.0 1.0 0.00 0.00 0.00 100 1013.3
20260903115011 72 199 0.0 2.0 0.00 0.00 0.00 100 1013.3
20260903114511 72 199 0.0 2.0 0.00 0.00 0.00 100 1013.3
20260903114013 72 199 1.0 2.0 0.00 0.00 0.00 100 1013.2
20260903113511 72 198 0.0 0.0 0.00 0.00 0.00 100 1013.2
20260903113011 72 198 0.0 0.0 0.00 0.00 0.00 100 1013.2
20260903112511 72 198 0.0 0.0 0.00 0.00 0.00 100 1013.0
20260903112010 72 198 0.0 0.0 0.00 0.00 0.00 100 1013.0
20260903111511 72 198 0.0 0.0 0.00 0.00 0.00 100 1013.0
20260903111011 72 198 0.0 0.0 0.00 0.00 0.00 100 1012.8
20260903110511 72 199 0.0 0.0 0.00 0.00 0.00 100 1012.8
20260903110012 72 198 0.0 0.0 0.00 0.00 0.00 100 1012.8
20260903105512 72 199 0.0 0.0 0.00 0.00 0.00 100 1012.6
20260903105011 72 199 0.0 2.0 0.00 0.00 0.00 100 1012.6
20260903104011 72 198 2.0 2.0 0.00 0.00 0.00 100 1012.5
20260903103510 72 199 0.0 0.0 0.00 0.00 0.00 100 1012.5
20260903103011 72 199 0.0 0.0 0.00 0.00 0.00 100 1012.5
20260903102512 72 198 0.0 0.0 0.00 0.00 0.00 100 1012.4
20260903101511 72 198 0.0 0.0 0.00 0.00 0.00 100 1012.4
20260903101011 72 198 0.0 2.0 0.00 0.00 0.00 100 1012.3
20260903100510 72 199 0.0 2.0 0.00 0.00 0.00 100 1012.3
20260903100011 72 198 0.0 3.0 0.00 0.00 0.00 100 1012.3
20260903095511 72 199 0.0 3.0 0.00 0.00 0.00 100 1012.4
20260903095011 72 199 0.0 0.0 0.00 0.00 0.00 100 1012.4
20260903094511 72 199 0.0 0.0 0.00 0.00 0.00 100 1012.4
20260903094011 72 198 0.0 0.0 0.00 0.00 0.00 100 1012.3
20260903093512 72 199 0.0 0.0 0.00 0.00 0.00 100 1012.3
20260903093011 72 199 0.0 0.0 0.00 0.00 0.00 100 1012.3